SES-5

Last updated on Sept. 20, 2020, 5:45 a.m. UTC

1 38652U 12036A   20263.59161014  .00000019  00000-0  00000-0 0  9996
2 38652   0.0470  95.1222 0001899  71.7448  50.0431  1.00270964 23474
UTC
Height (km)
Latitude
Longitude
Inclination
Orbital Period
UTC large
Height (km)
Speed (km/s)
/
Latitude / Longitude
Inclination (degrees)
Orbital Period (minutes)
Azimuth
Elevation
Range (km)
Doppler Factor
iOS Compass Heading
iOS Angle

Next 30 passes for location: Hong Kong

Rise time Rise Azimuth (degrees) Set time Set Azimuth (degrees) Duration Max altitude (degrees)

No matching passes for this satellites